OBJECT B

Last updated on Feb. 16, 2021, 12:02 a.m. UTC

1 47619U 21011B   21046.74276436  .01834778  12101-4  43875-3 0  9991
2 47619  51.6573 223.6434 0020731  73.0263 287.3322 16.28071004    66

Satellite is not in orbit.